Lexington Weather

Lexington, Massachusetts, USA

25°F
2/26/2021 7:27am 
  • Lexington Conditions: Clear
  • Temperature: 24.6°F / -4.1°CColder 0.7°F than last hour.
  • Dew Point: 15.3°FIncreased 0.4°Fsince last hour.
  • Relative Humidity: 67%Increased 3.0% since last hour.
  • Wind: Calm, 10-min avg: Calm, gust: None
  • Barometer: 30.34 inRising 0.03  inHg/hr Rising Slowly
  • Visibility: 10 miles
  • Snow Today: 0.0 in
  •   

Regional Weather Roundup
for Boston / Norton, MA

        
000
ASUS41 KBOX 220504
RWRBOX

REGIONAL WEATHER ROUNDUP
NATIONAL WEATHER SERVICE BOSTON/NORTON MA
1200 AM EST MON FEB 22 2021

NOTE:  "FAIR" INDICATES FEW OR NO CLOUDS BELOW 12,000 FEET WITH NO 
SIGNIFICANT WEATHER AND/OR OBSTRUCTIONS TO VISIBILITY.

MAZALL-220600-
EASTERN MASSACHUSETTS
  
CITY           SKY/WX    TMP DP  RH WIND       PRES   REMARKS
BOSTON         PTCLDY    25  11  55 S3        30.43F                  
BEVERLY        CLEAR     18  10  71 CALM      30.40F                  
LAWRENCE       CLEAR     16   8  71 CALM      30.42F                  
BEDFORD        CLEAR     13   7  77 CALM      30.41F                  
BLUE HILL        N/A     23   5  46 W6        30.37F WCI  16          
NORWOOD        CLEAR     10   5  80 CALM      30.43F                  
MARSHFIELD     CLEAR     19  16  86 W3        30.42F                  
PLYMOUTH       CLEAR     13  10  88 CALM      30.41F                  
TAUNTON        CLEAR     12   7  80 CALM      30.42F                  
NEW BEDFORD    CLEAR     15  11  83 CALM      30.43F                  
$$

MAZALL-220600-
CAPE COD AND THE ISLANDS
  
CITY           SKY/WX    TMP DP  RH WIND       PRES   REMARKS
FALMOUTH       CLEAR     12  10  92 CALM      30.43F                  
HYANNIS        CLEAR     15  11  83 CALM      30.41F                  
CHATHAM        CLEAR     24  15  68 SW5       30.44F WCI  18          
PROVINCETOWN   CLEAR     27  19  72 SW8       30.43F WCI  19          
NANTUCKET      CLEAR     24  14  65 W6        30.44F WCI  17          
MARTHAS VNYRD  CLEAR     13   9  84 CALM      30.43F                  
$$
 
MAZALL-220600-
CENTRAL AND WESTERN MASSACHUSETTS
  
CITY           SKY/WX    TMP DP  RH WIND       PRES   REMARKS
WORCESTER      CLEAR     22   4  46 W6        30.35F WCI  14          
FITCHBURG      CLEAR      8   5  87 W3        30.41F                  
ORANGE         CLEAR      9   6  88 CALM      30.39F                  
SPRINGFIELD    CLEAR      9   5  83 CALM      30.39F                  
WESTFIELD        N/A     13   8  81 CALM      30.40F                  
NORTH ADAMS    CLEAR     14   6  70 E5        30.37F WCI   6          
PITTSFIELD     CLEAR      9   5  84 W3        30.33F                  
$$
 
RIZALL-220600-
RHODE ISLAND
  
CITY           SKY/WX    TMP DP  RH WIND       PRES   REMARKS
PROVIDENCE     CLEAR     22  11  62 W3        30.43F                  
NEWPORT        CLEAR     16  10  77 CALM      30.42F                  
BLOCK ISLAND   CLEAR     22  11  62 CALM      30.44F                  
SMITHFIELD     CLEAR     18   9  68 CALM      30.40F                  
WESTERLY       CLEAR     13   8  81 CALM      30.43F                  
$$
 
CTZALL-220600-
CONNECTICUT
  
CITY           SKY/WX    TMP DP  RH WIND       PRES   REMARKS
BRADLEY INTL   PTCLDY    17   8  67 CALM      30.40F                  
HARTFORD       CLEAR     19  12  74 CALM      30.42F                  
BRIDGEPORT     MOCLDY    21  14  74 CALM      30.43F                  
DANBURY        MOCLDY    14   7  73 CALM      30.41F                  
GROTON         CLEAR     18  14  84 CALM      30.43F                  
NEW HAVEN      PTCLDY    17  12  80 CALM      30.42F                  
CHESTER        FAIR      21   5  49 CALM      30.40F                  
MERIDEN        PTCLDY    15   8  73 CALM      30.42F                  
WILLIMANTIC    CLEAR     14   9  80 CALM      30.42F                  
OXFORD         PTCLDY    18   7  62 S3        30.39F                  
$$

MEZ002-015-021-024-NHZ003-005-008-011-012-014-VTZ005-008-220600-
NORTHERN NEW ENGLAND
  
CITY           SKY/WX    TMP DP  RH WIND       PRES   REMARKS
PORTLAND ME    CLEAR     17  10  74 CALM      30.39F                  
BANGOR ME      CLEAR     19   7  59 SW5       30.36S WCI  12          
CONCORD NH     CLEAR      9   5  84 CALM      30.39F                  
MANCHESTER NH  CLEAR     16   7  67 CALM      30.38F                  
NASHUA NH      CLEAR     12   8  84 CALM      30.41F                  
PORTSMOUTH NH  PTCLDY    20   4  50 W3        30.38F                  
JAFFREY NH     CLEAR      2  -2  83 S3        30.34F                  
KEENE NH       CLEAR      6   4  91 CALM      30.40S                  
BURLINGTON VT  CLEAR     13   5  70 CALM      30.34S                  
MT. WASHINGTON PTCLDY     9  -6  52 W16         N/A  WCI  -9          
$$

NYZ052-076-220600-
EASTERN NEW YORK
  
CITY           SKY/WX    TMP DP  RH WIND       PRES   REMARKS
ALBANY         CLOUDY    18   8  65 S5        30.39S WCI  11          
NEW YORK CITY  CLOUDY    33  14  45 SW7       30.43F WCI  27          
$$
 
ANZALL-220600-
MARINE OBSERVATIONS
  
STATION/POSITION TIME  TEMP    WIND        PRES    VSBY  WAVE
                       AIR SEA DIR/SP/G                  HT/PER
                 (UTC) (F)     (DEG/KT/KT) (MB)    (MI)  (FT/S)
BOSTON BUOY      0440   32 39  290/  6/ 10 1030.6F
BUZZARDS BAY     0400          270/  8/  8 1032.0F
NANTUCKET SOUND  0440      36  230/  8/ 10   N/A
MASS BAY-STELLWA 0404   31     320/  8/ 10 1029.7F  1 7/8  3/11
ISLE OF SHOALS   0400   29     280/ 11/ 12 1029.5F
S OF BLOCK IS    0426      38                N/A           3/11
$$

......................KEY.........................
  SKY/WX - SKY CONDITION/PRESENT WEATHER
  TMP    - TEMPERATURE IN FAHRENHEIT
  DWPT   - DEWPOINT IN FAHRENHEIT
  RH     - RELATIVE HUMIDITY IN PERCENT
  WIND   - DIRECTION AND SPEED IN MPH
  PRES   - MEAN SEA LEVEL PRESSURE IN INCHES OF HG
  WCI    - WIND CHILL INDEX
  VSB    - VISIBILITY IN MILES
  HX     - HEAT INDEX
  TC     - TEMPERATURE IN CELSIUS
  VRB    - VARIABLE WIND DIRECTION
  N/A    - NOT AVAILABLE
  
      

Other recent Regional Weather Roundups

Fri Feb 26, 7:04am

Fri Feb 26, 6:04am

Fri Feb 26, 5:04am

Fri Feb 26, 4:04am

Fri Feb 26, 3:04am

Fri Feb 26, 2:04am

Fri Feb 26, 1:04am

Fri Feb 26, 12:04am

Thu Feb 25, 11:04pm

Thu Feb 25, 10:04pm

Thu Feb 25, 9:04pm

Thu Feb 25, 8:05pm

Thu Feb 25, 7:05pm

Thu Feb 25, 6:04pm

Thu Feb 25, 5:04pm

Thu Feb 25, 4:05pm

Thu Feb 25, 3:05pm

Thu Feb 25, 2:04pm

Thu Feb 25, 1:04pm

Thu Feb 25, 12:05pm

Thu Feb 25, 11:04am

Thu Feb 25, 10:04am

Thu Feb 25, 9:04am

Thu Feb 25, 8:04am

Thu Feb 25, 7:04am

Thu Feb 25, 6:04am

Thu Feb 25, 5:04am

Thu Feb 25, 4:04am

Thu Feb 25, 3:04am

Thu Feb 25, 2:04am

Thu Feb 25, 1:04am

Thu Feb 25, 12:04am

Wed Feb 24, 11:04pm

Wed Feb 24, 10:05pm

Wed Feb 24, 9:04pm

Wed Feb 24, 8:04pm

Wed Feb 24, 7:04pm

Wed Feb 24, 6:04pm

Wed Feb 24, 5:04pm

Wed Feb 24, 4:04pm

Wed Feb 24, 3:04pm

Wed Feb 24, 2:05pm

Wed Feb 24, 1:05pm

Wed Feb 24, 12:05pm

Wed Feb 24, 11:04am

Wed Feb 24, 10:04am

Wed Feb 24, 9:04am

Wed Feb 24, 8:04am

Wed Feb 24, 7:04am

Wed Feb 24, 6:04am

Wed Feb 24, 5:04am

Wed Feb 24, 4:04am

Wed Feb 24, 3:04am

Wed Feb 24, 2:04am

Wed Feb 24, 1:04am

Wed Feb 24, 12:04am

Tue Feb 23, 11:04pm

Tue Feb 23, 10:04pm

Tue Feb 23, 9:04pm

Tue Feb 23, 8:05pm

Tue Feb 23, 7:04pm

Tue Feb 23, 6:04pm

Tue Feb 23, 5:04pm

Tue Feb 23, 4:05pm

Tue Feb 23, 3:04pm

Tue Feb 23, 2:04pm

Tue Feb 23, 1:04pm

Tue Feb 23, 12:04pm

Tue Feb 23, 11:04am

Tue Feb 23, 10:04am

Tue Feb 23, 9:04am

Tue Feb 23, 7:04am

Tue Feb 23, 6:04am

Tue Feb 23, 5:04am

Tue Feb 23, 4:04am

Tue Feb 23, 3:04am

Tue Feb 23, 2:04am

Tue Feb 23, 1:04am

Tue Feb 23, 12:04am

Mon Feb 22, 11:04pm

Mon Feb 22, 10:04pm

Mon Feb 22, 9:04pm

Mon Feb 22, 8:04pm

Mon Feb 22, 7:04pm

Mon Feb 22, 6:04pm

Mon Feb 22, 5:04pm

Mon Feb 22, 4:05pm

Mon Feb 22, 3:04pm

Mon Feb 22, 2:05pm

Mon Feb 22, 1:04pm

Mon Feb 22, 12:05pm

Mon Feb 22, 11:04am

Mon Feb 22, 10:04am

Mon Feb 22, 9:05am

Mon Feb 22, 8:04am

Mon Feb 22, 7:04am

Mon Feb 22, 6:04am

Mon Feb 22, 5:04am

Mon Feb 22, 4:04am

Mon Feb 22, 3:04am

Mon Feb 22, 2:04am

Mon Feb 22, 1:04am

Sun Feb 21, 11:04pm

Sun Feb 21, 10:05pm

Sun Feb 21, 9:04pm

Sun Feb 21, 8:04pm

Sun Feb 21, 7:04pm

Sun Feb 21, 6:04pm

Sun Feb 21, 5:04pm

Sun Feb 21, 4:05pm

Sun Feb 21, 3:04pm

Sun Feb 21, 2:04pm

Sun Feb 21, 1:05pm

Sun Feb 21, 12:05pm

Sun Feb 21, 11:04am

Sun Feb 21, 10:05am

Sun Feb 21, 9:04am

Sun Feb 21, 8:04am

Sun Feb 21, 7:04am

Sun Feb 21, 6:04am

Sun Feb 21, 5:04am

Sun Feb 21, 4:04am

Sun Feb 21, 3:04am

Sun Feb 21, 2:04am

Sun Feb 21, 1:04am

Sun Feb 21, 12:04am

Sat Feb 20, 11:04pm

Sat Feb 20, 10:04pm

Sat Feb 20, 9:04pm

Sat Feb 20, 8:04pm

Sat Feb 20, 7:04pm

Sat Feb 20, 6:04pm

Sat Feb 20, 5:04pm

Sat Feb 20, 4:05pm

Sat Feb 20, 3:04pm

Sat Feb 20, 2:04pm

Sat Feb 20, 1:05pm

Sat Feb 20, 12:05pm

Sat Feb 20, 11:04am

Sat Feb 20, 10:05am

Sat Feb 20, 9:04am

Sat Feb 20, 8:04am

Sat Feb 20, 7:04am

Sat Feb 20, 6:04am

Sat Feb 20, 5:04am

Sat Feb 20, 4:04am

Sat Feb 20, 3:04am

Sat Feb 20, 2:04am

Sat Feb 20, 1:04am

Sat Feb 20, 12:04am

Fri Feb 19, 11:04pm

Fri Feb 19, 10:05pm

Fri Feb 19, 9:04pm

Fri Feb 19, 8:04pm

Fri Feb 19, 7:04pm

Fri Feb 19, 6:04pm

Fri Feb 19, 5:04pm

Fri Feb 19, 4:05pm

Fri Feb 19, 3:04pm

Fri Feb 19, 2:04pm

Fri Feb 19, 1:05pm

Fri Feb 19, 12:05pm

Fri Feb 19, 11:04am

Fri Feb 19, 10:04am

Fri Feb 19, 9:04am

Fri Feb 19, 8:04am

Meta data:

ID: 08e34768-e62a-447e-bea6-db7ac8b1f474
Link: https://api.weather.gov/products/08e34768-e62a-447e-bea6-db7ac8b1f474